Tracking 30509 objects as of 21-May-2025
HD Live streaming from Space Station
objects crossing your sky now

ATLAS 5 CENTAUR DEB

Track ATLAS 5 CENTAUR DEB now!


NORAD ID: 44694
Int'l Code: 2018-079BG
Perigee: 8,736.6 km
Apogee: 36,163.8 km
Inclination: 13.1 °
Period: 811.6 minutes
Semi major axis: 28821 km
RCS: Unknown
Launch date: October 17, 2018
Source: United States (US)
Launch site: AIR FORCE EASTERN TEST RANGE (AFETR)

Note: This is SATELLITE DEBRIS
Your satellite tracking list
Your tracking list is empty




NASA's NSSDC Master Catalog

Two Line Element Set (TLE):
1 44694U 18079BG  25139.93824076 -.00000050  00000-0  00000-0 0  9997
2 44694  13.1481  71.1803 4758152 236.5154  68.7742  1.77433180 39588
Source of the keplerian elements: AFSPC